PBO Station Position Time Series. Reference Frame : NAM14
Format Version,1.1.1
4-character ID,P542
Station name,BruceSprinCS2008
Begin Date, 2008-02-17
End Date, 2023-06-26
Release Date, 2023-06-27
Reference position, 35.6889106674 North Latitude, -120.2926009243 East Longitude, 587.95861 meters elevation,
Date, North (mm), East (mm), Vertical (mm), North Std. Deviation (mm), East Std. Deviation (mm),              Vertical Std. Deviation (mm), Quality,
2008-02-17,0.00, 0.00, 0.00, 1.91, 1.60, 7.27, repro,
2008-02-18,-1.19, -1.04, 4.38, 1.92, 1.61, 7.31, repro,
2008-02-19,-1.80, -1.45, -2.96, 1.92, 1.61, 7.31, repro,
2008-02-20,-4.20, 0.19, -2.18, 1.93, 1.62, 7.35, repro,
2008-02-21,-1.90, -1.20, 5.94, 1.91, 1.61, 7.28, repro,
2008-02-22,-3.19, -0.41, 6.88, 1.91, 1.61, 7.30, repro,
2008-02-23,-2.34, -0.72, 3.91, 1.93, 1.61, 7.34, repro,
2008-02-24,-0.94, 0.54, 0.52, 1.97, 1.69, 7.49, repro,
2008-02-25,-2.57, 1.10, -4.22, 1.93, 1.61, 7.33, repro,
2008-02-26,-0.75, -0.74, -14.41, 1.92, 1.61, 7.28, repro,
2008-02-27,-1.06, -0.78, -3.32, 1.96, 1.65, 7.49, repro,
2008-02-28,-1.63, -1.45, -4.50, 1.95, 1.64, 7.45, repro,
2008-02-29,-1.29, -1.11, -2.60, 1.95, 1.65, 7.47, repro,
2008-03-01,-0.47, -1.63, -2.72, 1.96, 1.65, 7.53, repro,
2008-03-02,-0.20, -0.51, -7.10, 1.95, 1.65, 7.45, repro,
2008-03-03,-1.16, -1.13, -4.43, 1.90, 1.58, 7.19, repro,
2008-03-04,-0.66, -0.79, -2.43, 1.90, 1.59, 7.24, repro,
2008-03-05,-0.93, -1.55, -4.60, 1.98, 1.71, 7.67, repro,
2008-03-06,-0.60, -1.63, 0.27, 1.91, 1.60, 7.27, repro,
2008-03-07,-1.43, -1.10, -0.17, 1.93, 1.60, 7.30, repro,
2008-03-08,-2.25, -0.52, 1.48, 1.95, 1.64, 7.52, repro,
2008-03-09,-1.71, -0.61, -2.51, 1.94, 1.63, 7.48, repro,
2008-03-10,-1.89, -0.01, -3.14, 1.91, 1.59, 7.29, repro,
2008-03-11,-0.37, 0.59, -5.65, 1.92, 1.60, 7.28, repro,
2008-03-12,0.25, -0.64, -3.64, 1.95, 1.63, 7.48, repro,
2008-03-13,-0.94, -0.99, -3.07, 1.94, 1.63, 7.43, repro,
2008-03-14,-0.70, -1.52, 2.70, 1.91, 1.59, 7.22, repro,
2008-03-15,-1.44, -1.87, -8.73, 1.94, 1.62, 7.44, repro,
2008-03-16,-0.97, -2.22, 0.55, 1.95, 1.64, 7.43, repro,
2008-03-17,-1.04, -2.11, 1.83, 2.04, 1.78, 8.04, repro,
2008-03-18,-1.20, -1.76, -1.74, 1.98, 1.69, 7.64, repro,
2008-03-19,-1.08, -1.31, 1.43, 1.95, 1.63, 7.42, repro,
2008-03-20,-1.11, -0.74, -8.01, 1.95, 1.64, 7.43, repro,
2008-03-21,-1.58, -0.67, -7.09, 1.95, 1.62, 7.36, repro,
2008-03-22,-2.11, -1.06, -6.75, 1.95, 1.63, 7.41, repro,
2008-03-23,-1.64, -0.89, -9.23, 1.99, 1.68, 7.64, repro,
2008-03-24,-0.71, -1.09, -4.39, 1.96, 1.64, 7.46, repro,
2008-03-25,-0.34, -0.42, -2.49, 1.96, 1.66, 7.46, repro,
2008-03-26,-1.08, -0.74, -6.36, 1.96, 1.66, 7.42, repro,
2008-03-27,-0.95, -1.39, -10.28, 1.97, 1.66, 7.48, repro,
2008-03-28,-0.91, -1.87, -3.08, 1.96, 1.64, 7.38, repro,
2008-03-29,-0.65, -1.06, 0.52, 1.94, 1.60, 7.37, repro,
2008-03-30,0.33, -3.03, -0.72, 1.94, 1.60, 7.38, repro,
2008-03-31,-0.83, -1.46, 1.69, 1.92, 1.59, 7.28, repro,
2008-04-01,-1.13, -1.59, 0.56, 1.93, 1.58, 7.27, repro,
2008-04-02,-0.93, -1.21, -3.11, 1.99, 1.61, 7.52, repro,
2008-04-03,-1.62, -1.62, -6.78, 1.94, 1.59, 7.32, repro,
2008-04-04,-1.12, -1.05, -2.46, 1.94, 1.59, 7.33, repro,
2008-04-05,-1.56, -1.90, 1.62, 1.93, 1.59, 7.34, repro,
2008-04-06,-2.62, -0.79, 0.40, 1.94, 1.58, 7.30, repro,
2008-04-07,-2.07, -0.35, -3.91, 1.94, 1.58, 7.32, repro,
2008-04-08,-2.20, -0.60, -4.25, 1.94, 1.59, 7.34, repro,
2008-04-09,-1.90, -0.10, -1.49, 1.94, 1.59, 7.35, repro,
2008-04-10,-1.50, -0.62, -1.58, 1.94, 1.59, 7.32, repro,
2008-04-11,-1.12, -1.54, -3.86, 1.93, 1.59, 7.33, repro,
2008-04-12,-0.13, -1.71, -5.01, 1.94, 1.59, 7.35, repro,
2008-04-13,-0.22, -1.83, -1.52, 1.94, 1.59, 7.32, repro,
2008-04-14,0.02, -2.35, 0.26, 1.93, 1.59, 7.31, repro,
2008-04-15,-0.76, -2.51, 1.60, 1.97, 1.65, 7.46, repro,
2008-04-16,-1.58, -2.38, 3.34, 1.97, 1.64, 7.42, repro,
2008-04-17,-0.62, -1.86, 0.58, 1.95, 1.59, 7.34, repro,
2008-04-18,-1.45, -0.36, -3.32, 1.95, 1.58, 7.36, repro,
2008-04-19,-2.39, -0.13, -4.36, 1.94, 1.59, 7.35, repro,
2008-04-20,-1.66, -0.65, -2.33, 1.93, 1.58, 7.30, repro,
2008-04-21,-1.08, -0.35, -3.66, 1.94, 1.58, 7.30, repro,
2008-04-22,-0.87, -0.60, -4.35, 1.96, 1.59, 7.40, repro,
2008-04-23,-0.60, 0.59, -7.28, 2.02, 1.66, 7.68, repro,
2008-04-24,-0.55, -0.77, -5.96, 1.98, 1.62, 7.53, repro,
2008-04-25,0.68, -1.11, -5.88, 1.95, 1.59, 7.36, repro,
2008-04-26,-0.48, -1.15, -4.56, 2.02, 1.61, 7.55, repro,
2008-04-27,-0.82, -1.71, -2.75, 2.04, 1.62, 7.61, repro,
2008-04-28,-0.40, -2.45, -1.67, 2.04, 1.62, 7.60, repro,
2008-04-29,0.27, -1.39, 6.93, 2.10, 1.62, 7.74, repro,
2008-04-30,-1.65, -1.97, 2.16, 2.04, 1.65, 7.61, repro,
2008-05-01,-0.12, -1.63, 1.96, 1.99, 1.62, 7.48, repro,
2008-05-02,-1.75, 0.19, -0.75, 2.04, 1.65, 7.59, repro,
2008-05-03,-1.79, -0.78, -2.64, 2.01, 1.62, 7.54, repro,
2008-05-04,-1.83, -0.15, -1.98, 1.98, 1.59, 7.42, repro,
2008-05-05,-1.71, -0.57, -5.54, 2.02, 1.63, 7.57, repro,
2008-05-06,-0.67, 0.46, -6.00, 2.02, 1.67, 7.62, repro,
2008-05-07,1.05, -0.08, 1.63, 2.01, 1.62, 7.50, repro,
2008-05-08,-0.81, -0.99, -2.18, 2.16, 1.71, 7.96, repro,
2008-05-09,-0.48, -0.27, -2.26, 2.00, 1.61, 7.48, repro,
2008-05-10,0.60, 0.23, 5.13, 2.01, 1.61, 7.53, repro,
2008-05-11,-0.79, -0.57, 5.24, 1.99, 1.62, 7.48, repro,
2008-05-12,-1.61, -2.13, 8.87, 2.00, 1.62, 7.52, repro,
2008-05-13,-0.38, -2.16, 4.68, 2.01, 1.62, 7.51, repro,
2008-05-14,-1.27, -2.25, -1.07, 1.96, 1.58, 7.36, repro,
2008-05-15,-0.83, -1.41, -1.85, 1.98, 1.59, 7.43, repro,
2008-05-16,0.39, -0.14, -0.74, 1.99, 1.59, 7.43, repro,
2008-05-17,-1.28, -0.71, 6.12, 2.00, 1.63, 7.51, repro,
2008-05-18,-0.64, -0.11, 3.34, 2.01, 1.63, 7.58, repro,
2008-05-19,-0.61, -0.16, -1.52, 1.96, 1.60, 7.43, repro,
2008-05-20,0.03, -0.46, 3.82, 2.00, 1.62, 7.52, repro,
2008-05-21,0.51, 0.93, 9.54, 1.97, 1.59, 7.43, repro,
2008-05-22,1.49, 0.24, 9.09, 1.97, 1.64, 7.52, repro,
2008-05-23,-0.31, 0.38, 7.95, 2.01, 1.70, 7.77, repro,
2008-05-24,-0.20, -1.11, 6.58, 1.99, 1.64, 7.60, repro,
2008-05-25,-0.71, -0.78, 6.93, 1.98, 1.64, 7.55, repro,
2008-05-26,-1.80, -1.20, 2.43, 2.00, 1.68, 7.65, repro,
2008-05-27,-1.21, -0.63, 4.58, 1.97, 1.59, 7.41, repro,
2008-05-28,-1.43, -2.40, -0.28, 1.98, 1.61, 7.48, repro,
2008-05-29,-0.25, -1.67, 1.48, 2.01, 1.64, 7.52, repro,
2008-05-30,-0.25, 1.38, 2.83, 1.99, 1.66, 7.61, repro,
2008-05-31,-0.50, 1.51, -1.54, 1.97, 1.63, 7.48, repro,
2008-06-01,0.25, 0.93, -1.07, 1.98, 1.63, 7.53, repro,
2008-06-02,0.02, 0.70, -2.45, 1.99, 1.65, 7.56, repro,
2008-06-03,-0.58, 1.10, -1.75, 2.04, 1.67, 7.76, repro,
2008-06-04,0.27, -0.10, 12.53, 1.95, 1.58, 7.33, repro,
2008-06-05,0.96, -0.44, 10.16, 1.96, 1.58, 7.37, repro,
2008-06-06,0.52, -0.64, 1.77, 1.98, 1.60, 7.46, repro,
2008-06-07,-0.74, -1.13, 12.08, 2.04, 1.68, 7.67, repro,
2008-06-08,-0.36, -1.87, 7.56, 2.02, 1.64, 7.53, repro,
2008-06-09,-0.18, -0.93, 4.56, 2.02, 1.63, 7.50, repro,
2008-06-10,-0.04, -1.44, 4.78, 1.97, 1.58, 7.36, repro,
2008-06-11,0.34, -0.79, 0.62, 1.96, 1.57, 7.32, repro,
2008-06-12,-0.83, -0.36, 1.77, 1.98, 1.62, 7.51, repro,
2008-06-13,-0.33, 0.06, 1.26, 1.98, 1.59, 7.38, repro,
2008-06-14,1.04, 0.07, -1.13, 2.02, 1.61, 7.46, repro,
2008-06-15,-0.38, 1.12, 1.93, 2.02, 1.61, 7.43, repro,
2008-06-16,0.72, -0.16, 2.24, 1.96, 1.58, 7.33, repro,
2008-06-17,0.01, 0.32, 3.55, 1.96, 1.59, 7.38, repro,
2008-06-18,0.01, 0.71, 0.21, 1.96, 1.58, 7.35, repro,
2008-06-19,1.53, -0.54, 0.71, 2.04, 1.71, 7.79, repro,
2008-06-20,1.01, -0.89, 1.32, 1.95, 1.58, 7.31, repro,
2008-06-21,-0.50, -0.21, -1.89, 1.96, 1.60, 7.36, repro,
2008-06-22,1.53, -0.36, -0.12, 1.97, 1.58, 7.32, repro,
2008-06-23,-1.85, -0.65, 5.03, 2.00, 1.66, 7.54, repro,
2008-06-24,-1.45, -1.24, 3.09, 2.00, 1.64, 7.46, repro,
2008-06-25,-1.27, -1.03, 4.21, 1.96, 1.58, 7.32, repro,
2008-06-26,0.44, -0.43, -1.97, 2.00, 1.69, 7.56, repro,
2008-06-27,0.14, 0.72, 1.75, 1.95, 1.57, 7.26, repro,
2008-06-28,-0.42, 0.00, -0.54, 1.99, 1.63, 7.45, repro,
2008-06-29,0.85, 1.33, -5.36, 2.01, 1.65, 7.51, repro,
2008-06-30,-0.23, 0.63, -3.50, 1.98, 1.57, 7.35, repro,
2008-07-01,1.12, 0.08, -3.30, 1.97, 1.58, 7.34, repro,
2008-07-02,1.01, -0.30, 3.62, 1.96, 1.58, 7.27, repro,
2008-07-03,0.25, -1.11, 10.06, 1.96, 1.57, 7.31, repro,
2008-07-04,-1.21, 0.96, 5.18, 1.98, 1.59, 7.38, repro,
2008-07-05,-1.52, -0.19, 9.39, 1.98, 1.58, 7.38, repro,
2008-07-06,0.31, -1.37, 9.96, 1.98, 1.58, 7.39, repro,
2008-07-07,-0.38, -1.63, 6.76, 2.01, 1.66, 7.51, repro,
2008-07-08,-0.57, -2.49, 4.84, 1.97, 1.57, 7.32, repro,
2008-07-09,-0.67, -0.86, 12.57, 2.01, 1.64, 7.48, repro,
2008-07-10,0.02, 0.73, 9.69, 2.05, 1.62, 7.56, repro,
2008-07-11,0.33, -0.42, 4.70, 2.10, 1.69, 7.71, repro,
2008-07-12,-0.06, -0.88, 7.02, 1.98, 1.59, 7.36, repro,
2008-07-13,1.19, -0.22, 4.84, 2.00, 1.65, 7.47, repro,
2008-07-14,0.52, 0.50, 13.26, 2.00, 1.64, 7.43, repro,
2008-07-15,1.03, -1.04, 8.39, 1.96, 1.59, 7.35, repro,
2008-07-16,2.34, -1.13, 6.03, 1.98, 1.58, 7.43, repro,
2008-07-17,0.68, -0.59, 11.83, 1.99, 1.59, 7.45, repro,
2008-07-18,1.39, -1.09, 9.93, 2.09, 1.62, 7.75, repro,
2008-07-19,-0.55, -1.38, 7.99, 2.03, 1.60, 7.59, repro,
2008-07-20,1.22, -0.34, 12.01, 1.96, 1.58, 7.32, repro,
2008-07-21,-0.97, -1.48, 13.73, 1.99, 1.62, 7.46, repro,
2008-07-22,-1.22, -1.64, 6.42, 1.98, 1.59, 7.36, repro,
2008-07-23,-0.83, -0.42, 6.66, 2.01, 1.59, 7.47, repro,
2008-07-24,-0.83, -0.95, 6.34, 1.94, 1.57, 7.24, repro,
2008-07-25,-0.17, -0.15, 3.90, 1.96, 1.58, 7.32, repro,
2008-07-26,0.02, -0.23, 4.36, 1.96, 1.58, 7.37, repro,
2008-07-27,0.64, -0.01, 1.02, 1.96, 1.57, 7.35, repro,
2008-07-28,0.47, -0.51, 9.91, 2.04, 1.61, 7.53, repro,
2008-07-29,1.93, -0.25, 17.02, 2.03, 1.58, 7.61, repro,
2008-07-30,2.22, 0.15, 14.04, 2.03, 1.58, 7.57, repro,
2008-07-31,0.52, -1.13, 17.04, 1.95, 1.57, 7.29, repro,
2008-08-01,0.38, -1.18, 15.62, 1.96, 1.57, 7.30, repro,
2008-08-02,-1.06, -1.57, 14.90, 1.96, 1.57, 7.34, repro,
2008-08-03,0.34, -2.73, 11.05, 2.00, 1.61, 7.39, repro,
2008-08-04,-0.73, -0.80, 6.41, 1.96, 1.57, 7.30, repro,
2008-08-05,-1.52, -0.51, 10.46, 1.95, 1.56, 7.26, repro,
2008-08-06,-0.45, -0.84, 0.69, 2.02, 1.58, 7.52, repro,
2008-08-07,0.06, -0.97, 8.42, 2.07, 1.64, 7.59, repro,
2008-08-08,2.59, -0.31, 4.35, 2.07, 1.65, 7.64, repro,
2008-08-09,0.03, -0.63, 0.24, 2.02, 1.58, 7.45, repro,
2008-08-10,1.44, -0.61, 5.90, 2.02, 1.58, 7.44, repro,
2008-08-11,1.98, -1.52, 6.72, 2.02, 1.58, 7.47, repro,
2008-08-12,1.95, -2.41, 12.81, 2.01, 1.58, 7.48, repro,
2008-08-13,1.41, -1.80, 13.79, 2.02, 1.58, 7.48, repro,
2008-08-14,1.09, -0.26, 10.56, 2.00, 1.58, 7.43, repro,
2008-08-15,0.80, -0.91, 9.10, 2.02, 1.59, 7.47, repro,
2008-08-16,-0.07, -2.28, 11.50, 2.00, 1.58, 7.41, repro,
2008-08-17,0.34, -1.87, 13.71, 2.02, 1.58, 7.50, repro,
2008-08-18,-0.43, -1.94, 9.26, 2.02, 1.58, 7.50, repro,
2008-08-19,0.73, -2.28, 6.29, 2.02, 1.58, 7.51, repro,
2008-08-20,-0.87, -2.04, 8.77, 2.02, 1.59, 7.53, repro,
2008-08-21,0.36, -1.20, 3.84, 2.01, 1.59, 7.45, repro,
2008-08-22,0.31, -0.41, 5.44, 2.01, 1.59, 7.49, repro,
2008-08-23,0.54, -1.92, 6.82, 2.02, 1.58, 7.48, repro,
2008-08-24,0.40, -1.30, 7.51, 2.01, 1.62, 7.58, repro,
2008-08-25,1.59, -1.86, 7.33, 2.01, 1.58, 7.49, repro,
2008-08-26,2.19, -2.25, 10.76, 2.03, 1.59, 7.50, repro,
2008-08-27,1.10, -1.78, 17.69, 2.05, 1.62, 7.63, repro,
2008-08-28,2.30, -3.14, 18.27, 2.12, 1.64, 7.81, repro,
2008-08-29,0.34, -1.88, 8.91, 2.04, 1.61, 7.60, repro,
2008-08-30,-0.55, -2.16, 14.71, 2.04, 1.62, 7.60, repro,
2008-08-31,-0.27, -2.09, 7.19, 2.06, 1.63, 7.67, repro,
2008-09-01,-0.38, -2.91, 1.82, 2.04, 1.62, 7.57, repro,
2008-09-02,-0.32, -1.65, -3.53, 2.05, 1.62, 7.62, repro,
2008-09-03,0.67, -1.84, 3.01, 2.04, 1.62, 7.58, repro,
2008-09-04,1.15, -1.39, 2.52, 2.14, 1.72, 8.09, repro,
2008-09-05,0.19, -2.13, -0.16, 2.12, 1.66, 7.81, repro,
2008-09-06,0.48, -1.55, 4.45, 2.05, 1.61, 7.60, repro,
2008-09-07,-0.28, -1.55, 7.75, 2.07, 1.65, 7.78, repro,
2008-09-08,0.61, -1.50, 5.58, 2.03, 1.61, 7.57, repro,
2008-09-09,0.93, -1.66, 0.33, 2.05, 1.62, 7.72, repro,
2008-09-10,1.65, -1.66, 5.02, 2.10, 1.71, 8.02, repro,
2008-09-11,0.58, -2.62, 9.05, 2.07, 1.64, 7.73, repro,
2008-09-12,-1.02, -2.76, 15.00, 2.10, 1.72, 8.09, repro,
2008-09-13,-0.37, -2.39, 9.42, 2.09, 1.69, 7.89, repro,
2008-09-14,-0.90, -1.78, 6.17, 2.05, 1.66, 7.75, repro,
2008-09-15,-0.74, -2.09, 5.91, 2.03, 1.63, 7.64, repro,
2008-09-16,-1.00, -1.42, -1.65, 2.04, 1.66, 7.62, repro,
2008-09-17,-0.50, -1.12, -8.25, 2.12, 1.65, 7.80, repro,
2008-09-18,-1.26, -0.58, -2.93, 2.03, 1.58, 7.51, repro,
2008-09-19,-0.97, -1.51, -3.24, 2.01, 1.58, 7.45, repro,
2008-09-20,0.58, -0.72, 0.82, 2.01, 1.58, 7.48, repro,
2008-09-21,0.36, -1.40, 2.17, 2.01, 1.58, 7.44, repro,
2008-09-22,1.15, -1.63, 4.43, 2.04, 1.60, 7.66, repro,
2008-09-23,0.27, -2.40, 9.63, 2.02, 1.58, 7.50, repro,
2008-09-24,0.76, -0.88, 10.29, 2.08, 1.66, 7.81, repro,
2008-09-25,-1.14, -2.21, 5.84, 2.04, 1.62, 7.64, repro,
2008-09-26,-0.93, -0.93, 8.33, 2.01, 1.58, 7.50, repro,
2008-09-27,0.80, -2.43, 5.56, 2.05, 1.61, 7.54, repro,
2008-09-28,0.53, -1.51, -1.08, 2.02, 1.58, 7.47, repro,
2008-09-29,-1.93, -2.17, 2.71, 2.05, 1.62, 7.58, repro,
2008-09-30,-1.56, -0.93, 1.51, 2.01, 1.59, 7.46, repro,
2008-10-01,-0.97, -1.22, -2.97, 2.01, 1.58, 7.47, repro,
2008-10-02,0.28, -0.81, 2.92, 2.08, 1.67, 7.82, repro,
2008-10-03,-0.00, -1.28, 1.25, 2.09, 1.67, 7.84, repro,
2008-10-04,0.58, -1.32, 4.75, 2.02, 1.58, 7.44, repro,
2008-10-05,1.19, -1.06, 6.67, 2.01, 1.58, 7.43, repro,
2008-10-06,2.02, -1.04, 8.57, 2.02, 1.58, 7.48, repro,
2008-10-07,0.79, -2.33, 3.86, 2.03, 1.59, 7.54, repro,
2008-10-08,0.05, -1.10, 7.78, 2.01, 1.61, 7.53, repro,
2008-10-09,0.47, -2.29, 4.13, 1.98, 1.57, 7.36, repro,
2008-10-10,-0.77, -2.81, 2.91, 1.96, 1.56, 7.30, repro,
2008-10-11,-1.19, -2.93, 6.16, 1.97, 1.57, 7.35, repro,
2008-10-12,-1.54, -1.58, -0.65, 1.97, 1.57, 7.34, repro,
2008-10-13,-0.27, -0.90, -2.88, 1.97, 1.56, 7.34, repro,
2008-10-14,-0.89, -1.04, -4.85, 1.98, 1.57, 7.41, repro,
2008-10-15,-0.59, -1.69, -4.68, 2.04, 1.59, 7.55, repro,
2008-10-16,-0.44, -0.00, -6.01, 2.02, 1.59, 7.52, repro,
2008-10-17,-0.47, -0.64, -5.65, 1.96, 1.56, 7.25, repro,
2008-10-18,-1.33, -1.54, -1.45, 1.97, 1.56, 7.32, repro,
2008-10-19,0.40, -1.42, 2.07, 1.98, 1.57, 7.39, repro,
2008-10-20,-0.16, -1.60, 5.08, 1.97, 1.56, 7.29, repro,
2008-10-21,-1.40, -1.08, 7.41, 1.96, 1.56, 7.29, repro,
2008-10-22,-0.63, -1.89, 3.73, 1.96, 1.56, 7.28, repro,
2008-10-23,-0.92, -1.50, 5.87, 1.96, 1.56, 7.29, repro,
2008-10-24,-0.25, -1.89, 8.15, 1.95, 1.55, 7.26, repro,
2008-10-25,0.33, -1.68, 3.41, 1.97, 1.57, 7.33, repro,
2008-10-26,-1.17, -1.23, 0.10, 1.96, 1.57, 7.34, repro,
2008-10-27,-0.53, -0.82, -10.55, 1.96, 1.56, 7.30, repro,
2008-10-28,-1.14, -0.79, -8.32, 2.04, 1.59, 7.51, repro,
2008-10-29,-1.75, -0.87, -6.07, 2.03, 1.58, 7.45, repro,
2008-10-30,1.08, -0.81, -2.40, 1.98, 1.56, 7.32, repro,
2008-10-31,1.05, 0.64, -8.38, 2.05, 1.63, 7.65, repro,
2008-11-01,1.23, -1.29, -5.34, 1.98, 1.58, 7.40, repro,
2008-11-02,1.27, -1.68, 3.30, 2.03, 1.63, 7.60, repro,
2008-11-03,0.77, -2.21, 5.04, 1.99, 1.58, 7.37, repro,
2008-11-04,1.18, -1.86, 6.71, 2.01, 1.61, 7.48, repro,
2008-11-05,0.32, -3.32, 3.02, 1.99, 1.61, 7.49, repro,
2008-11-06,-0.97, -1.84, 2.10, 2.00, 1.64, 7.57, repro,
2008-11-07,-0.89, -1.29, -2.39, 2.03, 1.71, 7.71, repro,
2008-11-08,-1.84, -1.82, -0.09, 2.03, 1.70, 7.66, repro,
2008-11-09,-0.44, -2.17, 11.71, 1.98, 1.59, 7.43, repro,
2008-11-10,-0.44, -2.50, 1.85, 1.99, 1.64, 7.53, repro,
2008-11-11,1.32, -2.11, 3.20, 2.09, 1.75, 8.05, repro,
2008-11-12,1.05, -0.45, -3.71, 2.00, 1.58, 7.44, repro,
2008-11-13,1.00, 1.80, -1.14, 2.03, 1.62, 7.52, repro,
2008-11-14,1.50, -0.22, 2.62, 2.02, 1.64, 7.55, repro,
2008-11-15,0.76, 0.01, -2.67, 2.01, 1.61, 7.50, repro,
2008-11-16,1.03, -1.92, 3.16, 2.06, 1.71, 7.73, repro,
2008-11-17,1.29, -1.03, 3.74, 2.07, 1.70, 7.69, repro,
2008-11-18,0.20, -0.75, -0.56, 2.09, 1.76, 7.99, repro,
2008-11-19,0.03, -1.10, -0.54, 2.05, 1.70, 7.72, repro,
2008-11-20,0.22, -1.19, -2.56, 2.07, 1.71, 7.73, repro,
2008-11-21,-0.38, -1.96, -1.34, 2.21, 1.88, 8.53, repro,
2008-11-22,-0.02, -1.90, 3.31, 2.09, 1.75, 8.00, repro,
2008-11-23,-0.71, -2.17, -0.38, 2.12, 1.73, 7.85, repro,
2008-11-24,0.09, -0.94, -2.44, 2.15, 1.78, 7.98, repro,
2008-11-25,1.12, -1.23, -5.22, 2.01, 1.67, 7.64, repro,
2008-11-26,0.61, 0.07, -2.16, 1.97, 1.59, 7.43, repro,
2008-11-27,0.94, -1.35, -2.78, 2.01, 1.68, 7.66, repro,
2008-11-28,1.69, -2.43, 6.04, 2.08, 1.73, 7.82, repro,
2008-11-29,0.52, -1.48, 2.72, 2.15, 1.84, 8.19, repro,
2008-11-30,1.12, -1.26, 5.51, 1.99, 1.60, 7.48, repro,
2008-12-01,1.55, -2.02, 7.27, 1.98, 1.58, 7.39, repro,
2008-12-02,0.70, -1.80, 6.81, 2.06, 1.70, 7.70, repro,
2008-12-03,-0.41, -1.94, 2.12, 2.05, 1.70, 7.64, repro,
2008-12-04,-0.78, -2.37, 0.42, 2.05, 1.73, 7.79, repro,
2008-12-05,-0.36, -1.54, 1.28, 1.98, 1.62, 7.47, repro,
2008-12-06,-0.83, -0.63, -3.10, 2.08, 1.77, 7.80, repro,
2008-12-07,0.85, -0.54, -4.07, 2.09, 1.80, 7.90, repro,
2008-12-08,-0.31, -1.64, 2.76, 2.01, 1.67, 7.60, repro,
2008-12-09,-0.43, -1.14, -8.01, 1.97, 1.59, 7.40, repro,
2008-12-10,1.84, -0.43, -4.38, 1.96, 1.58, 7.38, repro,
2008-12-11,1.86, -1.26, 2.40, 2.11, 1.71, 7.80, repro,
2008-12-12,2.09, -0.26, 12.92, 2.13, 1.76, 7.97, repro,
2008-12-13,1.81, -1.22, 15.52, 2.02, 1.68, 7.61, repro,
2008-12-14,1.07, -0.52, 7.34, 1.97, 1.57, 7.30, repro,
2008-12-15,0.22, -0.99, 6.48, 1.97, 1.58, 7.39, repro,
2008-12-16,-0.26, -2.13, 7.98, 1.94, 1.56, 7.24, repro,
2008-12-17,-0.36, -2.31, 1.38, 2.02, 1.57, 7.43, repro,
2008-12-18,0.10, -0.30, 2.35, 1.97, 1.57, 7.31, repro,
2008-12-19,-1.02, -0.65, -0.71, 2.02, 1.58, 7.56, repro,
2008-12-20,0.24, -1.38, -3.49, 2.01, 1.66, 7.58, repro,
2008-12-21,-0.78, -0.46, -8.57, 2.00, 1.64, 7.51, repro,
2008-12-22,1.68, 0.57, -5.15, 1.97, 1.57, 7.35, repro,
2008-12-23,0.32, -1.20, -4.36, 1.98, 1.57, 7.38, repro,
2008-12-24,0.61, -0.76, 0.19, 1.98, 1.57, 7.37, repro,
2008-12-25,2.44, -0.51, 2.78, 1.97, 1.57, 7.34, repro,
2008-12-26,1.96, -0.71, 0.47, 1.96, 1.57, 7.32, repro,
2008-12-27,1.23, -1.63, 0.60, 1.95, 1.57, 7.30, repro,
2008-12-28,0.24, -0.67, -2.06, 1.97, 1.57, 7.35, repro,
2008-12-29,-0.03, -1.24, 0.12, 1.98, 1.58, 7.39, repro,
2008-12-30,-0.01, -3.00, -3.89, 1.96, 1.58, 7.33, repro,
2008-12-31,-0.97, -2.72, -3.33, 1.98, 1.60, 7.43, repro,
2009-01-01,-0.50, -3.43, 1.84, 1.96, 1.57, 7.31, repro,
2009-01-02,-0.32, -0.46, 0.53, 1.96, 1.56, 7.32, repro,
2009-01-03,-1.44, -0.97, -1.61, 1.97, 1.56, 7.35, repro,
2009-01-04,-0.85, -1.29, -2.67, 1.97, 1.58, 7.38, repro,
2009-01-05,0.13, -1.77, -2.83, 1.95, 1.56, 7.26, repro,
2009-01-06,-0.28, -0.38, -5.69, 1.96, 1.57, 7.35, repro,
2009-01-07,-1.01, -1.68, -2.01, 1.98, 1.61, 7.35, repro,
2009-01-08,-0.17, -1.82, -0.98, 1.98, 1.61, 7.50, repro,
2009-01-09,0.78, -1.36, -6.90, 2.00, 1.61, 7.54, repro,
2009-01-10,0.18, -1.70, -5.63, 1.94, 1.56, 7.27, repro,
2009-01-11,0.69, -2.24, -1.57, 1.96, 1.58, 7.35, repro,
2009-01-12,1.00, -1.94, -3.08, 1.97, 1.58, 7.36, repro,
2009-01-13,-0.46, -1.62, -4.56, 1.96, 1.58, 7.30, repro,
2009-01-14,-1.53, -1.68, -4.25, 1.96, 1.59, 7.34, repro,
2009-01-15,-1.27, -2.13, -7.31, 1.95, 1.57, 7.31, repro,
2009-01-16,-0.39, -0.66, -7.80, 1.94, 1.57, 7.30, repro,
2009-01-17,-0.21, -0.53, -5.58, 1.96, 1.58, 7.32, repro,
2009-01-18,0.71, 0.14, -3.38, 1.95, 1.59, 7.30, repro,
2009-01-19,0.08, 0.31, -2.73, 1.95, 1.58, 7.32, repro,
2009-01-20,-0.30, -0.42, -4.19, 1.96, 1.58, 7.35, repro,
2009-01-21,-0.18, -0.81, 2.66, 1.95, 1.58, 7.31, repro,
2009-01-22,1.87, -2.04, 5.10, 1.94, 1.58, 7.34, repro,
2009-01-23,-1.01, -0.59, -0.93, 1.95, 1.58, 7.31, repro,
2009-01-24,-0.15, -0.75, -5.40, 1.94, 1.57, 7.28, repro,
2009-01-25,-1.25, -1.27, -5.02, 1.94, 1.57, 7.31, repro,
2009-01-26,-1.04, -1.58, -1.27, 1.94, 1.57, 7.26, repro,
2009-01-27,-0.34, -0.96, -2.20, 1.95, 1.59, 7.35, repro,
2009-01-28,-0.85, -1.07, -4.62, 1.95, 1.58, 7.33, repro,
2009-01-29,-0.16, -0.90, -6.05, 1.94, 1.58, 7.28, repro,
2009-01-30,-0.69, -1.17, -6.72, 1.94, 1.57, 7.29, repro,
2009-01-31,-0.57, -0.63, -0.10, 1.95, 1.58, 7.32, repro,
2009-02-01,-1.28, -0.81, -1.92, 1.96, 1.58, 7.32, repro,
2009-02-02,-0.99, 0.24, -5.67, 1.95, 1.59, 7.30, repro,
2009-02-03,-0.44, -0.11, -2.89, 1.93, 1.57, 7.24, repro,
2009-02-04,-0.74, -1.00, -1.07, 1.94, 1.58, 7.30, repro,
2009-02-05,-0.58, -0.96, -2.79, 1.97, 1.64, 7.49, repro,
2009-02-06,0.21, -1.12, -1.52, 2.08, 1.71, 7.84, repro,
2009-02-07,-0.65, -1.70, 4.33, 1.94, 1.59, 7.30, repro,
2009-02-08,-0.04, -2.17, 3.04, 1.95, 1.59, 7.29, repro,
2009-02-09,-1.03, -2.32, 1.74, 1.97, 1.63, 7.44, repro,
2009-02-10,-0.31, -0.95, 4.60, 1.94, 1.59, 7.28, repro,
2009-02-11,-2.23, -1.36, -1.84, 1.99, 1.68, 7.61, repro,
2009-02-12,-2.11, 0.49, -1.87, 1.98, 1.64, 7.48, repro,
2009-02-13,-1.22, -0.23, -1.75, 1.98, 1.62, 7.46, repro,
2009-02-14,-1.25, 0.18, -1.23, 1.93, 1.59, 7.24, repro,
2009-02-15,-0.62, -0.51, -13.73, 1.97, 1.63, 7.51, repro,
2009-02-16,-1.49, -2.68, -4.68, 1.95, 1.60, 7.32, repro,
2009-02-17,-0.59, -1.05, -1.36, 2.00, 1.59, 7.44, repro,
2009-02-18,0.10, 0.14, -4.71, 1.98, 1.63, 7.51, repro,
2009-02-19,0.74, -1.20, -2.50, 1.97, 1.62, 7.50, repro,
2009-02-20,0.25, -1.75, -4.68, 1.96, 1.63, 7.44, repro,
2009-02-21,-1.09, -1.25, -0.47, 1.96, 1.62, 7.50, repro,
2009-02-22,0.50, -1.23, -0.32, 1.93, 1.59, 7.28, repro,
2009-02-23,-0.50, -2.43, -7.65, 2.00, 1.65, 7.59, repro,
2009-02-24,-0.94, -1.95, -7.72, 2.08, 1.77, 8.04, repro,
2009-02-25,-1.34, -1.36, -7.11, 194.86, 79.95, 183.52, repro,
2009-02-26,-1.48, -1.14, -2.49, 2.00, 1.71, 7.76, repro,
2009-02-27,-0.74, -1.56, -3.25, 2.04, 1.77, 7.92, repro,
2009-02-28,-1.40, -1.83, -8.19, 2.00, 1.68, 7.67, repro,
2009-03-01,-0.28, -0.17, -5.51, 2.01, 1.68, 7.67, repro,
2009-03-02,-1.18, -1.65, -8.16, 2.00, 1.68, 7.64, repro,
2009-03-03,-1.12, -0.70, -12.18, 2.03, 1.72, 7.76, repro,
2009-03-04,-0.87, -1.57, 6.97, 1.93, 1.60, 7.26, repro,
2009-03-05,-0.58, -0.58, -2.64, 1.97, 1.64, 7.49, repro,
2009-03-06,0.86, -1.18, 2.43, 2.01, 1.71, 7.69, repro,
2009-03-07,0.24, -1.54, -2.54, 1.95, 1.62, 7.40, repro,
2009-03-08,-0.26, -2.18, 2.49, 1.96, 1.63, 7.39, repro,
2009-03-09,-0.27, -1.65, -0.48, 1.96, 1.64, 7.43, repro,
2009-03-10,-0.86, -1.19, -0.31, 1.97, 1.63, 7.44, repro,
2009-03-11,-0.74, -0.85, -2.79, 1.95, 1.61, 7.33, repro,
2009-03-12,-0.52, -0.14, -10.64, 1.97, 1.63, 7.49, repro,
2009-03-13,-1.19, -0.59, -8.41, 1.95, 1.62, 7.38, repro,
2009-03-14,0.42, -0.63, -6.29, 1.99, 1.67, 7.59, repro,
2009-03-15,0.58, -0.05, 0.98, 1.93, 1.60, 7.25, repro,
2009-03-16,0.06, -0.67, -6.98, 1.95, 1.63, 7.40, repro,
2009-03-17,0.10, -0.65, 0.30, 1.94, 1.59, 7.22, repro,
2009-03-18,0.48, 0.13, -2.92, 1.94, 1.60, 7.26, repro,
2009-03-19,-0.08, -1.88, 2.32, 1.94, 1.59, 7.20, repro,
2009-03-20,0.69, -0.97, 3.55, 1.93, 1.59, 7.18, repro,
2009-03-21,0.09, -1.11, 1.14, 1.95, 1.63, 7.33, repro,
2009-03-22,-0.84, -2.45, 5.29, 1.96, 1.63, 7.35, repro,
2009-03-23,-0.14, -1.05, 1.39, 1.94, 1.59, 7.24, repro,
2009-03-24,-0.53, -0.27, -2.15, 1.95, 1.59, 7.25, repro,
2009-03-25,-1.34, -1.54, -4.30, 1.94, 1.59, 7.21, repro,
2009-03-26,-0.93, -2.09, 1.91, 1.94, 1.59, 7.23, repro,
2009-03-27,0.44, -1.64, 4.53, 2.01, 1.64, 7.51, repro,
2009-03-28,-0.22, -0.91, -0.62, 2.00, 1.60, 7.36, repro,
2009-03-29,-1.17, 0.20, 1.34, 1.99, 1.61, 7.38, repro,
2009-03-30,0.70, -1.17, 5.58, 2.00, 1.61, 7.38, repro,
2009-03-31,0.32, -1.39, 0.75, 1.98, 1.61, 7.35, repro,
2009-04-01,-0.03, -0.48, 4.48, 1.98, 1.59, 7.31, repro,
2009-04-02,0.73, -1.66, 0.21, 2.04, 1.64, 7.53, repro,
2009-04-03,0.15, -2.46, 1.93, 2.06, 1.65, 7.60, repro,
2009-04-04,-1.05, -1.60, 1.22, 2.01, 1.61, 7.42, repro,
2009-04-05,-0.05, -1.32, -2.24, 2.00, 1.60, 7.38, repro,
2009-04-06,-0.87, -0.70, -5.88, 1.99, 1.60, 7.33, repro,
2009-04-07,-1.38, -0.71, -0.68, 1.99, 1.59, 7.33, repro,
2009-04-08,-0.28, 0.57, -2.86, 1.99, 1.59, 7.31, repro,
2009-04-09,-0.70, -1.09, -1.09, 2.07, 1.64, 7.56, repro,
2009-04-10,-0.74, -0.23, -1.76, 2.02, 1.62, 7.43, repro,